Location: Blériot-Plage
(50.9575°N, 1.8224°E)
Time: 07:46:53
(UTC+00:00)

Cosmos 1602 Rocket - Pass Details

Date: 15 May 2026
Orbit: 597 x 625 km, 82.5° (Epoch: 6 June)

Event Time Altitude Azimuth Distance (km) Brightness Sun altitude
Rises 20:38:26 0° 353° (N) 2,861 7.9 -8.5°
Reaches altitude 10° 20:40:43 10° 359° (N) 1,956 6.9 -8.8°
Maximum altitude 20:44:55 50° 75° (ENE) 773 3.9 -9.2°
Enters shadow 20:48:45 12° 150° (SSE) 1,806 5.3 -9.6°
